CW4610 Weather Reports


Display with metric or nautical units.
time (UTC)temp
F
wind
direction
speed
MPH
gust
MPH
rain 1hr
in
rain 24hr
in
rain mn
in
humidity
%
barometer
mb
20260831141019 54 68 1.0 3.0 0.00 0.01 0.00 94 1014.0
20260831140022 54 90 1.0 3.0 0.00 0.01 0.00 94 1014.0
20260831135018 54 90 1.0 3.0 0.00 0.01 0.00 94 1014.0
20260831134019 54 68 2.0 3.0 0.00 0.01 0.00 94 1014.0
20260831133018 54 68 1.0 2.0 0.00 0.01 0.00 94 1014.1
20260831132020 54 90 1.0 2.0 0.00 0.01 0.00 94 1014.2
20260831131038 55 68 2.0 3.0 0.00 0.01 0.00 93 1014.4
20260831130018 55 68 1.0 3.0 0.00 0.01 0.00 94 1014.5
20260831125019 55 68 1.0 2.0 0.00 0.01 0.00 93 1014.5
20260831124019 55 68 1.0 2.0 0.00 0.01 0.00 93 1014.5
20260831123039 55 68 0.0 2.0 0.00 0.01 0.00 93 1014.5
20260831122019 55 68 2.0 3.0 0.00 0.01 0.00 92 1014.6
20260831121021 56 68 0.0 2.0 0.00 0.01 0.00 92 1014.6
20260831120020 56 68 0.0 2.0 0.00 0.01 0.00 92 1014.7
20260831115018 56 68 1.0 2.0 0.00 0.01 0.00 91 1014.7
20260831114018 57 63 0.0 0.0 0.00 0.01 0.00 91 1014.6
20260831113018 57 90 1.0 2.0 0.00 0.01 0.00 91 1014.8
20260831112018 57 90 2.0 3.0 0.00 0.01 0.00 91 1014.8
20260831111018 58 113 2.0 3.0 0.00 0.01 0.00 91 1015.0
20260831110018 58 90 1.0 2.0 0.00 0.01 0.00 91 1015.0
20260831105058 58 68 1.0 2.0 0.00 0.01 0.00 90 1015.0
20260831104018 58 90 2.0 3.0 0.00 0.01 0.00 90 1015.0
20260831103043 59 90 1.0 3.0 0.00 0.01 0.00 90 1015.0
20260831102018 59 68 2.0 3.0 0.00 0.01 0.00 89 1015.0
20260831101018 59 68 1.0 2.0 0.00 0.01 0.00 89 1015.1
20260831100019 59 68 1.0 2.0 0.00 0.01 0.00 89 1015.2
20260831095018 59 68 1.0 2.0 0.00 0.01 0.00 89 1015.2
20260831094018 59 123 0.0 0.0 0.00 0.01 0.00 89 1015.4
20260831093018 59 123 0.0 0.0 0.00 0.01 0.00 89 1015.5
20260831092018 59 113 1.0 2.0 0.00 0.01 0.00 89 1015.5
20260831091018 60 113 1.0 3.0 0.00 0.01 0.00 89 1015.7
20260831090018 60 135 1.0 3.0 0.00 0.01 0.00 89 1015.9
20260831085019 60 113 1.0 3.0 0.00 0.01 0.00 88 1015.9
20260831084018 60 90 1.0 3.0 0.00 0.01 0.00 88 1016.1
20260831083018 60 90 2.0 5.0 0.00 0.01 0.00 88 1016.1
20260831082018 60 90 2.0 3.0 0.00 0.01 0.00 88 1016.2
20260831081018 60 135 2.0 3.0 0.00 0.01 0.00 88 1016.2
20260831080019 60 135 2.0 3.0 0.00 0.01 0.00 88 1016.3
20260831075018 60 113 2.0 3.0 0.00 0.01 0.00 88 1016.3
20260831074018 60 113 3.0 4.0 0.00 0.01 0.00 88 1016.2
20260831073049 60 113 3.0 5.0 0.00 0.01 0.00 88 1016.4
20260831072057 60 90 1.0 2.0 0.00 0.01 0.00 88 1016.5
20260831071018 60 90 2.0 6.0 0.00 0.01 0.00 88 1016.6
20260831070018 60 113 3.0 4.0 0.00 0.01 0.01 88 1016.6
20260831065019 60 90 2.0 4.0 0.00 0.01 0.01 88 1016.6
20260831064019 60 90 2.0 5.0 0.00 0.01 0.01 88 1016.8
20260831063100 60 135 2.0 4.0 0.00 0.01 0.01 88 1016.9
20260831062019 60 90 1.0 2.0 0.00 0.01 0.01 88 1016.9
20260831061019 60 113 2.0 3.0 0.00 0.01 0.01 88 1016.7
20260831060019 60 45 1.0 2.0 0.00 0.01 0.01 88 1016.8
20260831055019 60 90 3.0 5.0 0.00 0.01 0.01 88 1016.9
20260831054019 60 90 3.0 6.0 0.00 0.01 0.01 87 1017.1
20260831053020 60 68 2.0 5.0 0.00 0.01 0.01 87 1017.1
20260831052019 60 68 3.0 5.0 0.00 0.01 0.01 87 1017.1
20260831051020 60 113 1.0 3.0 0.00 0.01 0.01 86 1017.0
20260831050047 60 68 1.0 2.0 0.00 0.01 0.01 86 1017.0
20260831045019 61 68 2.0 5.0 0.00 0.01 0.01 85 1016.9
20260831044039 61 0 1.0 2.0 0.00 0.01 0.01 84 1016.9
20260831043057 62 45 2.0 5.0 0.00 0.01 0.01 83 1017.1
20260831042019 62 113 3.0 5.0 0.00 0.01 0.01 83 1017.1
20260831041019 62 68 1.0 2.0 0.00 0.01 0.01 81 1017.0
20260831040019 63 23 3.0 6.0 0.00 0.01 0.01 80 1017.1
20260831035018 63 180 2.0 5.0 0.00 0.01 0.01 81 1017.1
20260831034018 63 225 3.0 5.0 0.00 0.01 0.01 79 1017.1
20260831033018 64 113 0.0 1.0 0.00 0.01 0.01 78 1017.0
20260831032018 64 0 1.0 3.0 0.00 0.01 0.01 77 1016.9
20260831031019 64 315 1.0 2.0 0.00 0.01 0.01 77 1017.0
20260831030018 64 90 1.0 3.0 0.01 0.01 0.01 76 1017.0
20260831025018 64 180 3.0 8.0 0.01 0.01 0.01 77 1017.0
20260831024019 64 158 5.0 9.0 0.01 0.01 0.01 77 1017.0
20260831023039 64 180 4.0 9.0 0.01 0.01 0.01 77 1016.9
20260831022018 64 180 6.0 11.0 0.01 0.01 0.01 78 1016.9
20260831021019 64 180 8.0 13.0 0.01 0.01 0.01 77 1017.0
20260831020019 65 180 7.0 11.0 0.00 0.00 0.00 76 1017.0
20260831015018 65 180 8.0 15.0 0.00 0.00 0.00 75 1017.0
20260831014018 65 180 9.0 16.0 0.00 0.00 0.00 75 1017.0
20260831013018 66 180 8.0 14.0 0.00 0.00 0.00 73 1017.1
20260831012018 66 180 7.0 11.0 0.00 0.00 0.00 72 1017.1
20260831011018 66 180 5.0 8.0 0.00 0.00 0.00 72 1017.1
20260831010018 66 180 8.0 12.0 0.00 0.00 0.00 72 1017.1
20260831005018 66 180 10.0 15.0 0.00 0.00 0.00 72 1017.1
20260831004019 66 180 8.0 12.0 0.00 0.00 0.00 72 1017.3
20260831003018 66 180 7.0 14.0 0.00 0.00 0.00 72 1017.4
20260831002019 66 180 10.0 15.0 0.00 0.00 0.00 71 1017.4
20260831001019 67 180 12.0 17.0 0.00 0.00 0.00 70 1017.4
20260831000018 67 180 10.0 16.0 0.00 0.00 0.00 69 1017.6
20260830235038 67 180 7.0 12.0 0.00 0.00 0.00 72 1017.6
20260830234039 66 180 8.0 12.0 0.00 0.00 0.00 72 1017.6
20260830233018 66 180 9.0 14.0 0.00 0.00 0.00 72 1017.7
20260830232041 66 180 8.0 13.0 0.00 0.00 0.00 71 1017.7
20260830231018 66 180 6.0 9.0 0.00 0.00 0.00 72 1018.0
20260830230038 66 180 5.0 10.0 0.00 0.00 0.00 72 1018.1
20260830225018 65 180 5.0 10.0 0.00 0.00 0.00 73 1018.2
20260830224039 65 180 5.0 9.0 0.00 0.00 0.00 73 1018.4
20260830223019 65 180 5.0 9.0 0.00 0.00 0.00 74 1018.6
20260830222018 64 180 7.0 12.0 0.00 0.00 0.00 75 1018.6
20260830221018 64 180 7.0 12.0 0.00 0.00 0.00 75 1018.6
20260830220041 64 180 9.0 14.0 0.00 0.00 0.00 74 1018.6
20260830215020 65 180 6.0 12.0 0.00 0.00 0.00 75 1018.6
20260830214020 65 180 5.0 11.0 0.00 0.00 0.00 75 1018.6
20260830213021 64 180 6.0 8.0 0.00 0.00 0.00 75 1018.6
20260830212020 64 180 7.0 13.0 0.00 0.00 0.00 75 1018.6
20260830211152 64 180 8.0 13.0 0.00 0.00 0.00 74 1018.6
20260830210045 64 180 7.0 12.0 0.00 0.00 0.00 74 1018.5
20260830205039 64 180 5.0 9.0 0.00 0.00 0.00 74 1018.5
20260830204020 64 180 6.0 10.0 0.00 0.00 0.00 74 1018.5
20260830203021 64 180 8.0 12.0 0.00 0.00 0.00 74 1018.4
20260830202020 64 180 7.0 12.0 0.00 0.00 0.00 74 1018.4
20260830201040 64 180 9.0 15.0 0.00 0.00 0.00 74 1018.3
20260830200059 63 180 6.0 11.0 0.00 0.00 0.00 74 1018.2
20260830195041 63 180 8.0 12.0 0.00 0.00 0.00 74 1018.2
20260830194020 63 180 6.0 9.0 0.00 0.00 0.00 75 1018.2
20260830193020 63 180 6.0 11.0 0.00 0.00 0.00 75 1018.2
20260830192019 63 135 7.0 12.0 0.00 0.00 0.00 75 1018.2
20260830191040 63 180 7.0 11.0 0.00 0.00 0.00 75 1018.3
20260830190019 63 180 6.0 10.0 0.00 0.00 0.00 77 1018.4
20260830185019 63 180 6.0 10.0 0.00 0.00 0.00 79 1018.4
20260830184020 62 180 5.0 8.0 0.00 0.00 0.00 80 1018.6
20260830183019 62 180 5.0 9.0 0.00 0.00 0.00 80 1018.6
20260830182019 62 180 4.0 7.0 0.00 0.00 0.00 80 1018.6
20260830181020 62 180 5.0 8.0 0.00 0.00 0.00 80 1018.5
20260830180039 62 180 5.0 12.0 0.00 0.00 0.00 81 1018.3
20260830175019 62 180 8.0 13.0 0.00 0.00 0.00 81 1018.3
20260830174020 62 180 7.0 13.0 0.00 0.00 0.00 81 1018.2
20260830173020 62 180 7.0 11.0 0.00 0.00 0.00 81 1018.2
20260830172021 61 90 1.0 3.0 0.00 0.00 0.00 83 1018.2
20260830171019 61 158 3.0 6.0 0.00 0.00 0.00 83 1018.2
20260830170019 61 180 5.0 9.0 0.00 0.00 0.00 83 1018.2
20260830165100 61 180 3.0 4.0 0.00 0.00 0.00 84 1018.2
20260830164019 61 180 3.0 5.0 0.00 0.00 0.00 84 1018.2
20260830163020 60 180 5.0 10.0 0.00 0.00 0.00 84 1018.2
20260830162040 60 135 2.0 7.0 0.00 0.00 0.00 84 1018.2
20260830161019 60 0 0.0 1.0 0.00 0.00 0.00 85 1018.2
20260830160019 60 68 1.0 3.0 0.00 0.00 0.00 87 1018.2
20260830155019 59 338 1.0 2.0 0.00 0.00 0.00 87 1018.2
20260830154019 59 68 0.0 1.0 0.00 0.00 0.00 88 1018.3
20260830153020 59 68 1.0 3.0 0.00 0.00 0.00 88 1018.2
20260830152019 58 90 2.0 3.0 0.00 0.00 0.00 88 1018.2
20260830151039 58 90 3.0 5.0 0.00 0.00 0.00 88 1018.1
20260830150018 58 90 3.0 5.0 0.00 0.00 0.00 88 1018.1
20260830145019 58 90 3.0 7.0 0.00 0.00 0.00 88 1018.2
20260830144019 58 68 2.0 4.0 0.00 0.00 0.00 87 1018.1
20260830143019 58 90 2.0 3.0 0.00 0.00 0.00 86 1018.1
20260830142019 58 68 2.0 3.0 0.00 0.00 0.00 86 1018.0